Weather History for Cincinnati, OH

Change the Weather History Date:

Friday, April 5, 2013

  Actual Average Record
Temperature  
Mean Temperature 45 °F -  
Max Temperature 63 °F 58 °F 86 °F (1988)
Min Temperature 28 °F 39 °F 26 °F (1998)
Degree Days  
Heating Degree Days 20    
Moisture  
Dew Point 29 °F    
Average Humidity 59    
Maximum Humidity 92    
Minimum Humidity 22    
Precipitation  
Precipitation 0.00 in - - ()
Sea Level Pressure  
Sea Level Pressure 30.07 in    
Wind  
Wind Speed 3 mph (North)    
Max Wind Speed 15 mph    
Max Gust Speed 20 mph    
Visibility 10 miles    
Events      
Averages and records for this station are not official NWS values.
T = Trace of Precipitation, MM = Missing Value Source: NWS Daily Summary

Daily Weather History Graph

Daily Weather History Graph

Search for Another Location

Airport:

Trip Planner

Search our weather history database for the weather conditions in past years. The results will help you decide how hot, cold, wet, or windy it might be!

Date:

Astronomy

Apr. 05, 2013 Rise Set
Actual Time 7:15 AM EDT 8:05 PM EDT
Civil Twilight 6:48 AM EDT 8:32 PM EDT
Nautical Twilight 6:16 AM EDT 9:04 PM EDT
Astronomical Twilight 5:43 AM EDT 9:38 PM EDT
Moon 4:20 AM EDT (4/5) 3:30 PM EDT (4/5)
Length of Visible Light 13h 44m
Length of Day
12h 49m
Waning Crescent, 24% of the Moon is Illuminated
Apr 5
Waning Crescent
Apr 10
New
Apr 18
First Quarter
Apr 25
Full
May 2
Last Quarter

Hourly Weather History & Observations

Time (EDT) Temp. Dew Point Humidity Pressure Visibility Wind Dir Wind Speed Gust Speed Precip Events Conditions
12:53 AM 34.0 °F 28.0 °F 79% 30.02 in 10.0 mi Calm Calm - N/A   Clear
1:53 AM 32.0 °F 28.0 °F 85% 30.02 in 10.0 mi Calm Calm - N/A   Clear
2:53 AM 32.0 °F 28.0 °F 85% 30.01 in 10.0 mi Calm Calm - N/A   Clear
3:53 AM 28.9 °F 26.1 °F 89% 30.02 in 10.0 mi Calm Calm - N/A   Clear
4:53 AM 28.0 °F 26.1 °F 92% 30.03 in 10.0 mi Calm Calm - N/A   Clear
5:53 AM 28.0 °F 26.1 °F 92% 30.04 in 10.0 mi Calm Calm - N/A   Clear
6:53 AM 28.0 °F 26.1 °F 92% 30.06 in 10.0 mi Calm Calm - N/A   Clear
7:53 AM 28.9 °F 27.0 °F 92% 30.07 in 10.0 mi Calm Calm - N/A   Clear
8:53 AM 34.0 °F 30.9 °F 89% 30.09 in 10.0 mi Calm Calm - N/A   Clear
9:53 AM 42.1 °F 33.1 °F 70% 30.08 in 10.0 mi Calm Calm - N/A   Clear
10:53 AM 51.1 °F 32.0 °F 48% 30.08 in 10.0 mi Calm Calm - N/A   Partly Cloudy
11:53 AM 57.0 °F 28.9 °F 34% 30.07 in 10.0 mi Calm Calm - N/A   Clear
12:53 PM 60.1 °F 34.0 °F 38% 30.06 in 10.0 mi WNW 12.7 mph 19.6 mph N/A   Clear
1:53 PM 61.0 °F 35.1 °F 38% 30.05 in 10.0 mi NW 11.5 mph - N/A   Clear
2:53 PM 61.0 °F 32.0 °F 34% 30.04 in 10.0 mi NW 5.8 mph - N/A   Partly Cloudy
3:53 PM 62.1 °F 28.0 °F 28% 30.04 in 10.0 mi North 15.0 mph 19.6 mph N/A   Clear
4:53 PM 61.0 °F 21.9 °F 22% 30.04 in 10.0 mi North 9.2 mph 18.4 mph N/A   Clear
5:53 PM 60.1 °F 25.0 °F 26% 30.05 in 10.0 mi NNE 11.5 mph 17.3 mph N/A   Clear
6:53 PM 57.9 °F 26.1 °F 30% 30.07 in 10.0 mi North 9.2 mph - N/A   Clear
7:53 PM 55.0 °F 26.1 °F 33% 30.09 in 10.0 mi North 10.4 mph - N/A   Clear
8:53 PM 53.1 °F 26.1 °F 35% 30.12 in 10.0 mi North 8.1 mph - N/A   Clear
9:53 PM 48.0 °F 28.9 °F 48% 30.14 in 10.0 mi ENE 4.6 mph - N/A   Clear
10:53 PM 44.1 °F 30.0 °F 58% 30.16 in 10.0 mi Calm Calm - N/A   Clear
11:53 PM 39.9 °F 30.9 °F 70% 30.16 in 10.0 mi Calm Calm - N/A   Clear